Location: Dumpton Point
(51.3500°N, 1.4433°E)
Time: 08:58:26
(UTC+00:00)

Transit 4A - All Passes

Search period start: 07 October 2022 00:00
Search period end: 17 October 2022 00:00
Orbit: 870 x 974 km, 66.8° (Epoch: 06 October)

Date Brightness Start Highest point End Pass type
(mag) Time Alt. Az. Time Alt. Az. Time Alt. Az.
07 Oct - 00:47:20 10° WNW 00:51:36 19° N 00:55:46 10° NE visible
07 Oct - 02:35:46 10° NNW 02:40:10 21° NNE 02:44:30 10° ENE visible
07 Oct - 04:22:17 10° NNW 04:27:59 47° NE 04:33:36 10° ESE visible
07 Oct - 06:08:49 10° NW 06:14:22 44° WSW 06:19:49 10° S daylight
07 Oct - 19:36:20 10° SSE 19:40:29 19° ESE 19:44:33 10° ENE night (unlit)
07 Oct - 21:19:52 10° SSW 21:26:02 85° SE 21:32:04 10° NE visible
07 Oct - 23:07:41 10° W 23:13:03 31° NNW 23:18:20 10° NNE visible
08 Oct - 00:57:16 10° NW 01:01:19 18° N 01:05:20 10° NE visible
08 Oct - 02:45:09 10° NNW 02:49:51 23° NNE 02:54:27 10° ENE visible
08 Oct - 04:31:31 10° NW 04:37:22 61° NE 04:43:08 10° SE visible
08 Oct - 06:18:18 10° NW 06:23:24 32° WSW 06:28:27 10° S daylight
08 Oct - 19:44:25 10° SSE 19:49:26 27° ESE 19:54:22 10° NE night (unlit)
08 Oct - 21:29:10 10° SW 21:35:18 74° NW 21:41:19 10° NE visible
08 Oct - 23:17:36 10° W 23:22:38 26° NNW 23:27:36 10° NNE visible
09 Oct - 01:07:04 10° NW 01:11:04 18° N 01:15:00 10° NE visible
09 Oct - 02:54:28 10° NNW 02:59:28 27° NNE 03:04:23 10° E visible
09 Oct - 04:40:46 10° NW 04:46:42 81° NE 04:52:31 10° SE visible
09 Oct - 06:27:59 10° WNW 06:32:24 23° WSW 06:36:46 10° SSW daylight
09 Oct - 19:52:54 10° S 19:58:28 37° ESE 20:03:56 10° NE visible
09 Oct - 21:38:38 10° WSW 21:44:39 57° NW 21:50:33 10° NE visible
09 Oct - 23:27:34 10° WNW 23:32:16 23° NNW 23:36:54 10° NNE visible
10 Oct - 01:16:45 10° NW 01:20:48 18° N 01:24:48 10° NE visible
10 Oct - 03:03:44 10° NNW 03:09:01 32° NNE 03:14:13 10° E visible
10 Oct - 04:50:03 10° NW 04:55:56 76° SW 05:01:44 10° SSE visible
10 Oct - 06:38:00 10° WNW 06:41:18 16° WSW 06:44:36 10° SW daylight
10 Oct - 20:01:39 10° SSW 20:07:34 51° ESE 20:13:21 10° NE visible
10 Oct - 21:48:14 10° WSW 21:54:04 44° NW 21:59:46 10° NNE visible
10 Oct - 23:37:33 10° WNW 23:41:57 20° NNW 23:46:17 10° NNE visible
11 Oct - 01:26:18 10° NNW 01:30:32 19° NNE 01:34:43 10° ENE visible
11 Oct - 03:12:59 10° NNW 03:18:31 40° NE 03:23:59 10° ESE visible
11 Oct - 04:59:23 10° NW 05:05:06 55° WSW 05:10:45 10° SSE visible
11 Oct - 06:49:40 10° W 06:50:09 10° W 06:50:36 10° WSW daylight
11 Oct - 18:28:07 10° SE 18:31:22 15° ESE 18:34:35 10° ENE visible
11 Oct - 20:10:37 10° SSW 20:16:43 70° ESE 20:22:41 10° NE visible
11 Oct - 21:57:59 10° W 22:03:32 35° NW 22:08:59 10° NNE visible
11 Oct - 23:47:31 10° NW 23:51:40 19° N 23:55:46 10° NE visible
12 Oct - 01:35:45 10° NNW 01:40:14 21° NNE 01:44:39 10° ENE visible
12 Oct - 03:22:12 10° NNW 03:27:57 51° NE 03:33:37 10° ESE visible
12 Oct - 05:08:48 10° NW 05:14:12 40° WSW 05:19:33 10° S visible
12 Oct - 18:35:49 10° SSE 18:40:17 21° ESE 18:44:41 10° ENE visible
12 Oct - 20:19:48 10° SW 20:25:57 88° NW 20:31:59 10° NE visible
12 Oct - 22:07:50 10° W 22:13:05 29° NNW 22:18:14 10° NNE visible
12 Oct - 23:57:24 10° NW 00:01:24 18° N 00:05:21 10° NE visible
13 Oct - 01:45:06 10° NNW 01:49:53 24° NNE 01:54:35 10° ENE visible
13 Oct - 03:31:26 10° NW 03:37:19 67° NE 03:43:06 10° SE visible
13 Oct - 05:18:21 10° NW 05:23:14 28° WSW 05:28:05 10° SSW visible
13 Oct - 18:44:03 10° S 18:49:16 30° ESE 18:54:24 10° NE visible
13 Oct - 20:29:09 10° SW 20:35:15 67° NW 20:41:13 10° NE visible
13 Oct - 22:17:46 10° WNW 22:22:40 25° NNW 22:27:30 10° NNE visible
14 Oct - 00:07:10 10° NW 00:11:09 18° N 00:15:05 10° NE visible
14 Oct - 01:54:24 10° NNW 01:59:29 29° NNE 02:04:30 10° E visible
14 Oct - 03:40:41 10° NW 03:46:36 88° NE 03:52:25 10° SE visible
14 Oct - 05:28:06 10° WNW 05:32:12 20° WSW 05:36:15 10° SSW visible
14 Oct - 18:52:37 10° S 18:58:19 41° ESE 19:03:54 10° NE visible
14 Oct - 20:38:40 10° WSW 20:44:37 52° NW 20:50:26 10° NNE visible
14 Oct - 22:27:45 10° WNW 22:32:20 22° NNW 22:36:50 10° NNE visible
15 Oct - 00:16:48 10° NW 00:20:53 19° N 00:24:55 10° NE visible
15 Oct - 02:03:39 10° NNW 02:09:01 35° NE 02:14:19 10° E visible
15 Oct - 03:49:59 10° NW 03:55:49 69° WSW 04:01:34 10° SSE visible
15 Oct - 05:38:21 10° WNW 05:41:05 14° WSW 05:43:48 10° SW visible
15 Oct - 17:20:34 10° ESE 17:22:18 11° E 17:24:01 10° E daylight
15 Oct - 19:01:28 10° SSW 19:07:26 57° ESE 19:13:17 10° NE visible
15 Oct - 20:48:19 10° WSW 20:54:02 41° NW 20:59:40 10° NNE visible
15 Oct - 22:37:43 10° WNW 22:42:01 20° NNW 22:46:14 10° NNE visible
16 Oct - 00:26:18 10° NNW 00:30:36 20° NNE 00:34:50 10° ENE visible
16 Oct - 02:12:53 10° NNW 02:18:30 43° NE 02:24:02 10° ESE visible
16 Oct - 03:59:20 10° NW 04:04:58 49° WSW 04:10:31 10° SSE visible
16 Oct - 17:27:26 10° SE 17:31:10 17° ESE 17:34:51 10° ENE visible
16 Oct - 19:10:30 10° SSW 19:16:37 78° SE 19:22:36 10° NE visible
16 Oct - 20:58:06 10° W 21:03:32 33° NNW 21:08:53 10° NNE visible
16 Oct - 22:47:40 10° NW 22:51:44 18° N 22:55:45 10° NE visible
